BEIDOU-3 IGSO-2 (C39)

Last updated on Mon Oct 20 2025 00:03:25 GMT+0000 (Coordinated Universal Time)

1 44337U 19035A 25291.56360132 -.00000099 00000+0 00000+0 0 9991 2 44337 55.2147 160.9879 0037127 202.7959 344.7201 1.00288679 23244
UTC large
Height (km)
Speed (km/s)
/
Latitude / Longitude
Inclination (degrees)
Orbital Period (minutes)
Azimuth
Elevation
Range (km)
Doppler Factor

Next 0 passes for location: London (51.5072 / 0.1276)

Sorry there are no passes over London.